UAL349 KMCO-KMEM

Flight info

Callsign UAL349
Flight time N/A
Altitude 30000
Route RDSOX1 JFRYS PATOY Q116 GOOGY WASER VANZE3
Aircraft B738/M-SDE2E3FGHIRWXY/LB1

Departure

Time 2026-04-20 20:57
Airport Orlando International Airport (KMCO)

Arrival

Time N/A
Airport Memphis International Airport (KMEM)
Time Latitude Longitude Altitude Speed Heading
2026-04-20 20:15 28.42635 -81.31441 90 ft 0 kts 323°
2026-04-20 20:41 28.42625 -81.31433 90 ft 2 kts 322°
2026-04-20 20:42 28.42613 -81.31423 90 ft 2 kts 323°
2026-04-20 20:42 28.42601 -81.31413 90 ft 2 kts 322°
2026-04-20 20:42 28.42588 -81.31405 90 ft 2 kts 345°
2026-04-20 20:42 28.42573 -81.31402 90 ft 2 kts
2026-04-20 20:43 28.42558 -81.31405 90 ft 2 kts 19°
2026-04-20 20:43 28.42545 -81.31413 90 ft 2 kts 37°
2026-04-20 20:43 28.42534 -81.31424 90 ft 2 kts 55°
2026-04-20 20:43 28.42527 -81.31439 90 ft 2 kts 72°
2026-04-20 20:44 28.42525 -81.31447 90 ft 1 kts 81°
2026-04-20 20:44 28.42525 -81.31451 90 ft 0 kts 79°
2026-04-20 20:45 28.42524 -81.31451 90 ft 0 kts 78°
2026-04-20 20:48 28.42524 -81.31450 90 ft 0 kts 76°
2026-04-20 20:50 28.42528 -81.31430 90 ft 5 kts 82°
2026-04-20 20:50 28.42510 -81.31381 89 ft 10 kts 130°
2026-04-20 20:50 28.42434 -81.31300 87 ft 15 kts 148°
2026-04-20 20:50 28.42336 -81.31278 87 ft 13 kts 176°
2026-04-20 20:51 28.42269 -81.31217 87 ft 15 kts 110°
2026-04-20 20:51 28.42252 -81.31146 87 ft 0 kts 101°
2026-04-20 20:51 28.42252 -81.31144 87 ft 2 kts 101°
2026-04-20 20:52 28.42237 -81.31016 87 ft 27 kts 92°
2026-04-20 20:52 28.42249 -81.30778 87 ft 28 kts 84°
2026-04-20 20:52 28.42264 -81.30569 91 ft 26 kts 86°
2026-04-20 20:52 28.42289 -81.30426 92 ft 16 kts 47°
2026-04-20 20:53 28.42348 -81.30479 92 ft 14 kts 272°
2026-04-20 20:53 28.42341 -81.30598 91 ft 19 kts 265°
2026-04-20 20:53 28.42329 -81.30783 88 ft 27 kts 265°
2026-04-20 20:53 28.42318 -81.31027 86 ft 31 kts 275°
2026-04-20 20:54 28.42348 -81.31267 87 ft 30 kts 274°
2026-04-20 20:54 28.42349 -81.31499 88 ft 24 kts 270°
2026-04-20 20:54 28.42340 -81.31640 90 ft 18 kts 238°
2026-04-20 20:54 28.42263 -81.31763 91 ft 21 kts 263°
2026-04-20 20:55 28.42166 -81.31858 92 ft 19 kts 198°
2026-04-20 20:55 28.42040 -81.31876 93 ft 17 kts 180°
2026-04-20 20:55 28.41909 -81.31875 93 ft 20 kts 181°
2026-04-20 20:55 28.41770 -81.31874 93 ft 20 kts 180°
2026-04-20 20:56 28.41666 -81.31956 92 ft 18 kts 219°
2026-04-20 20:56 28.41555 -81.32005 91 ft 14 kts 233°
2026-04-20 20:56 28.41542 -81.32110 92 ft 12 kts 271°
2026-04-20 20:56 28.41569 -81.32194 92 ft 13 kts 335°
2026-04-20 20:57 28.41720 -81.32201 93 ft 53 kts 359°
2026-04-20 20:57 28.42368 -81.32206 97 ft 129 kts
2026-04-20 20:57 28.43454 -81.32221 341 ft 170 kts
2026-04-20 20:57 28.44634 -81.32307 1157 ft 177 kts
2026-04-20 20:58 28.45875 -81.32304 1849 ft 181 kts
2026-04-20 20:58 28.47184 -81.32269 2350 ft 199 kts
2026-04-20 20:58 28.48609 -81.32267 2911 ft 215 kts
2026-04-20 20:58 28.50152 -81.32285 3566 ft 228 kts
2026-04-20 20:59 28.51763 -81.32362 4398 ft 234 kts 358°
2026-04-20 20:59 28.53377 -81.32561 5211 ft 239 kts 354°
2026-04-20 20:59 28.55014 -81.32929 6021 ft 244 kts 343°
2026-04-20 20:59 28.56609 -81.33655 6671 ft 249 kts 337°
2026-04-20 21:00 28.58062 -81.34683 7090 ft 255 kts 318°
2026-04-20 21:00 28.59129 -81.36286 8008 ft 256 kts 300°
2026-04-20 21:00 28.59748 -81.38132 8923 ft 256 kts 284°
2026-04-20 21:00 28.59854 -81.40168 9740 ft 260 kts 272°
2026-04-20 21:01 28.59778 -81.42209 10504 ft 262 kts 271°
2026-04-20 21:01 28.59703 -81.44286 11271 ft 264 kts 272°
2026-04-20 21:01 28.59662 -81.46409 11685 ft 279 kts 273°
2026-04-20 21:01 28.59618 -81.48676 12106 ft 295 kts 270°
2026-04-20 21:02 28.59230 -81.51056 12519 ft 315 kts 255°
2026-04-20 21:02 28.58386 -81.53389 12935 ft 332 kts 249°
2026-04-20 21:02 28.57343 -81.55808 13356 ft 347 kts 248°
2026-04-20 21:02 28.56248 -81.58303 13766 ft 360 kts 248°
2026-04-20 21:03 28.55143 -81.60896 14180 ft 371 kts 248°
2026-04-20 21:03 28.54042 -81.63552 14609 ft 373 kts 249°
2026-04-20 21:03 28.52957 -81.66216 15024 ft 372 kts 249°
2026-04-20 21:03 28.51871 -81.68913 15432 ft 374 kts 249°
2026-04-20 21:04 28.50790 -81.71603 15854 ft 372 kts 249°
2026-04-20 21:04 28.49711 -81.74290 16272 ft 376 kts 249°
2026-04-20 21:04 28.48634 -81.76965 16678 ft 374 kts 249°
2026-04-20 21:04 28.47545 -81.79672 17085 ft 376 kts 249°
2026-04-20 21:05 28.46462 -81.82358 17498 ft 376 kts 248°
2026-04-20 21:05 28.45368 -81.85071 17918 ft 379 kts 249°
2026-04-20 21:05 28.44290 -81.87774 18323 ft 377 kts 250°
2026-04-20 21:05 28.43379 -81.90558 18736 ft 378 kts 256°
2026-04-20 21:06 28.42817 -81.93455 19149 ft 375 kts 264°
2026-04-20 21:06 28.42607 -81.96384 19562 ft 376 kts 269°
2026-04-20 21:06 28.42577 -81.99361 19982 ft 378 kts 271°
2026-04-20 21:06 28.42628 -82.02329 20392 ft 378 kts 272°
2026-04-20 21:07 28.42708 -82.05337 20811 ft 379 kts 272°
2026-04-20 21:07 28.42789 -82.08328 21228 ft 383 kts 273°
2026-04-20 21:07 28.42862 -82.11343 21643 ft 381 kts 272°
2026-04-20 21:07 28.42926 -82.14349 22055 ft 385 kts 272°
2026-04-20 21:08 28.42984 -82.17380 22467 ft 387 kts 272°
2026-04-20 21:08 28.43037 -82.20466 22889 ft 388 kts 272°
2026-04-20 21:08 28.43086 -82.23530 23315 ft 391 kts 272°
2026-04-20 21:08 28.43133 -82.26601 23745 ft 395 kts 272°
2026-04-20 21:09 28.43178 -82.29713 24180 ft 394 kts 272°
2026-04-20 21:09 28.43223 -82.32832 24611 ft 394 kts 272°
2026-04-20 21:09 28.43316 -82.35944 25039 ft 395 kts 274°
2026-04-20 21:09 28.43647 -82.39005 25463 ft 398 kts 281°
2026-04-20 21:10 28.44409 -82.42017 25882 ft 400 kts 289°
2026-04-20 21:10 28.45595 -82.44921 26322 ft 403 kts 296°
2026-04-20 21:10 28.47056 -82.47617 26744 ft 407 kts 301°
2026-04-20 21:10 28.48795 -82.50178 27171 ft 413 kts 307°
2026-04-20 21:11 28.50901 -82.52437 27601 ft 421 kts 316°
2026-04-20 21:11 28.53288 -82.54382 28035 ft 427 kts 320°
2026-04-20 21:11 28.55820 -82.56183 28468 ft 430 kts 322°
2026-04-20 21:11 28.58411 -82.57908 28901 ft 432 kts 323°
2026-04-20 21:12 28.61036 -82.59611 29334 ft 431 kts 323°
2026-04-20 21:12 28.63627 -82.61284 29779 ft 427 kts 323°
2026-04-20 21:12 28.66186 -82.62944 30132 ft 426 kts 323°
2026-04-20 21:12 28.68794 -82.64649 30162 ft 421 kts 323°
2026-04-20 21:13 28.73859 -82.67999 30163 ft 418 kts 322°
2026-04-20 21:13 28.78903 -82.71378 30160 ft 421 kts 322°
2026-04-20 21:14 28.83921 -82.74753 30165 ft 417 kts 322°
2026-04-20 21:14 28.88950 -82.78146 30160 ft 421 kts 322°
2026-04-20 21:15 28.94004 -82.81554 30159 ft 421 kts 322°
2026-04-20 21:15 28.99034 -82.84949 30159 ft 417 kts 322°
2026-04-20 21:16 29.04031 -82.88328 30157 ft 421 kts 322°
2026-04-20 21:16 29.09011 -82.91821 30159 ft 413 kts 319°
2026-04-20 21:17 29.13699 -82.95635 30156 ft 414 kts 317°
2026-04-20 21:17 29.18332 -82.99543 30160 ft 414 kts 317°
2026-04-20 21:18 29.22976 -83.03416 30155 ft 413 kts 317°
2026-04-20 21:18 29.27649 -83.07272 30164 ft 413 kts 317°
2026-04-20 21:19 29.32297 -83.11091 30162 ft 410 kts 317°
2026-04-20 21:20 29.39251 -83.16802 30164 ft 412 kts 318°
2026-04-20 21:20 29.43901 -83.20623 30170 ft 410 kts 318°
2026-04-20 21:21 29.48534 -83.24435 30171 ft 408 kts 317°
2026-04-20 21:21 29.53171 -83.28260 30170 ft 410 kts 317°
2026-04-20 21:22 29.57779 -83.32059 30174 ft 407 kts 318°
2026-04-20 21:22 29.62389 -83.35867 30174 ft 408 kts 317°
2026-04-20 21:23 29.67011 -83.39687 30172 ft 409 kts 318°
2026-04-20 21:23 29.71621 -83.43504 30174 ft 408 kts 318°
2026-04-20 21:24 29.76216 -83.47311 30170 ft 405 kts 318°
2026-04-20 21:24 29.80798 -83.51112 30172 ft 407 kts 318°
2026-04-20 21:25 29.85407 -83.54942 30174 ft 408 kts 317°
2026-04-20 21:25 29.89999 -83.58757 30181 ft 404 kts 317°
2026-04-20 21:26 29.94579 -83.62569 30183 ft 405 kts 317°
2026-04-20 21:26 29.99171 -83.66398 30189 ft 405 kts 317°
2026-04-20 21:27 30.03715 -83.70185 30188 ft 407 kts 317°
2026-04-20 21:27 30.08322 -83.74030 30192 ft 403 kts 317°
2026-04-20 21:28 30.12853 -83.77815 30190 ft 402 kts 317°
2026-04-20 21:28 30.17412 -83.81630 30181 ft 403 kts 318°
2026-04-20 21:29 30.21965 -83.85448 30185 ft 403 kts 318°
2026-04-20 21:29 30.26521 -83.89275 30189 ft 404 kts 318°
2026-04-20 21:30 30.31043 -83.93074 30187 ft 400 kts 317°
2026-04-20 21:30 30.35560 -83.96877 30190 ft 402 kts 317°
2026-04-20 21:31 30.40050 -84.00662 30202 ft 401 kts 317°
2026-04-20 21:31 30.44565 -84.04472 30206 ft 400 kts 317°
2026-04-20 21:32 30.49075 -84.08279 30209 ft 400 kts 317°
2026-04-20 21:32 30.53553 -84.12066 30211 ft 398 kts 317°
2026-04-20 21:33 30.58042 -84.15866 30210 ft 401 kts 317°
2026-04-20 21:33 30.62557 -84.19692 30222 ft 398 kts 317°
2026-04-20 21:34 30.67036 -84.23490 30225 ft 399 kts 317°
2026-04-20 21:34 30.71494 -84.27276 30227 ft 396 kts 317°
2026-04-20 21:35 30.75963 -84.31077 30229 ft 396 kts 318°
2026-04-20 21:35 30.80428 -84.34880 30228 ft 396 kts 318°
2026-04-20 21:36 30.84853 -84.38653 30234 ft 397 kts 317°
2026-04-20 21:36 30.89288 -84.42439 30237 ft 395 kts 318°
2026-04-20 21:37 30.93701 -84.46207 30244 ft 391 kts 318°
2026-04-20 21:37 30.98102 -84.49976 30244 ft 395 kts 318°
2026-04-20 21:38 31.02525 -84.53764 30247 ft 392 kts 317°
2026-04-20 21:38 31.06925 -84.57539 30246 ft 392 kts 317°
2026-04-20 21:39 31.11316 -84.61310 30243 ft 393 kts 318°
2026-04-20 21:39 31.15737 -84.65112 30243 ft 393 kts 318°
2026-04-20 21:40 31.20150 -84.68905 30237 ft 391 kts 317°
2026-04-20 21:40 31.24549 -84.72697 30241 ft 394 kts 317°
2026-04-20 21:41 31.28948 -84.76489 30241 ft 393 kts 317°
2026-04-20 21:41 31.33360 -84.80301 30247 ft 392 kts 318°
2026-04-20 21:42 31.37726 -84.84076 30249 ft 393 kts 318°
2026-04-20 21:42 31.42125 -84.87884 30253 ft 392 kts 318°
2026-04-20 21:43 31.46518 -84.91688 30251 ft 393 kts 317°
2026-04-20 21:43 31.50919 -84.95508 30250 ft 392 kts 318°
2026-04-20 21:44 31.55311 -84.99325 30244 ft 391 kts 318°
2026-04-20 21:44 31.59683 -85.03133 30243 ft 392 kts 318°
2026-04-20 21:45 31.64094 -85.06993 30245 ft 393 kts 317°
2026-04-20 21:45 31.68461 -85.10822 30244 ft 391 kts 317°
2026-04-20 21:46 31.72837 -85.14665 30246 ft 392 kts 318°
2026-04-20 21:46 31.77196 -85.18496 30247 ft 395 kts 318°
2026-04-20 21:47 31.81599 -85.22371 30251 ft 393 kts 318°
2026-04-20 21:47 31.85965 -85.26212 30250 ft 393 kts 318°
2026-04-20 21:48 31.90376 -85.30101 30252 ft 394 kts 318°
2026-04-20 21:48 31.94753 -85.33964 30250 ft 394 kts 318°
2026-04-20 21:49 31.99130 -85.37836 30247 ft 396 kts 318°
2026-04-20 21:49 32.03539 -85.41738 30250 ft 395 kts 318°
2026-04-20 21:50 32.07954 -85.45649 30243 ft 394 kts 318°
2026-04-20 21:50 32.12367 -85.49562 30244 ft 395 kts 318°
2026-04-20 21:51 32.16769 -85.53471 30243 ft 396 kts 318°
2026-04-20 21:51 32.21128 -85.57347 30246 ft 395 kts 318°
2026-04-20 21:52 32.25556 -85.61290 30244 ft 397 kts 318°
2026-04-20 21:52 32.29969 -85.65224 30242 ft 395 kts 318°
2026-04-20 21:53 32.34360 -85.69147 30246 ft 396 kts 318°
2026-04-20 21:53 32.38772 -85.73092 30245 ft 396 kts 318°
2026-04-20 21:54 32.43174 -85.77029 30246 ft 395 kts 318°
2026-04-20 21:54 32.47577 -85.80974 30249 ft 396 kts 318°
2026-04-20 21:55 32.51978 -85.84920 30249 ft 396 kts 318°
2026-04-20 21:55 32.56357 -85.88852 30248 ft 395 kts 318°
2026-04-20 21:56 32.60735 -85.92790 30248 ft 396 kts 318°
2026-04-20 21:56 32.65173 -85.96789 30254 ft 397 kts 318°
2026-04-20 21:57 32.69549 -86.00733 30262 ft 396 kts 318°
2026-04-20 21:57 32.73940 -86.04699 30261 ft 396 kts 319°
2026-04-20 21:58 32.78337 -86.08672 30264 ft 396 kts 318°
2026-04-20 21:58 32.82716 -86.12635 30262 ft 394 kts 319°
2026-04-20 21:59 32.87094 -86.16602 30271 ft 395 kts 319°
2026-04-20 21:59 32.91472 -86.20574 30276 ft 395 kts 319°
2026-04-20 22:00 32.95835 -86.24538 30277 ft 394 kts 318°
2026-04-20 22:00 33.00197 -86.28508 30284 ft 394 kts 319°
2026-04-20 22:01 33.04545 -86.32468 30280 ft 395 kts 319°
2026-04-20 22:01 33.08904 -86.36443 30285 ft 394 kts 319°
2026-04-20 22:02 33.13274 -86.40434 30284 ft 392 kts 319°
2026-04-20 22:02 33.17621 -86.44408 30284 ft 395 kts 319°
2026-04-20 22:03 33.21993 -86.48412 30278 ft 393 kts 319°
2026-04-20 22:03 33.26316 -86.52377 30280 ft 394 kts 319°
2026-04-20 22:04 33.30665 -86.56369 30271 ft 394 kts 319°
2026-04-20 22:04 33.35031 -86.60381 30283 ft 396 kts 319°
2026-04-20 22:05 33.39395 -86.64397 30286 ft 395 kts 319°
2026-04-20 22:05 33.43757 -86.68415 30292 ft 396 kts 319°
2026-04-20 22:06 33.48115 -86.72435 30292 ft 394 kts 319°
2026-04-20 22:06 33.52470 -86.76460 30294 ft 397 kts 319°
2026-04-20 22:07 33.56805 -86.80469 30292 ft 396 kts 319°
2026-04-20 22:07 33.61168 -86.84512 30291 ft 395 kts 319°
2026-04-20 22:08 33.65406 -86.88735 30285 ft 395 kts 313°
2026-04-20 22:08 33.68790 -86.93890 30284 ft 393 kts 302°
2026-04-20 22:09 33.71505 -86.99541 30279 ft 394 kts 299°
2026-04-20 22:09 33.74100 -87.05347 30261 ft 394 kts 298°
2026-04-20 22:10 33.76687 -87.11142 30266 ft 395 kts 299°
2026-04-20 22:10 33.79294 -87.16939 30261 ft 395 kts 299°
2026-04-20 22:11 33.81910 -87.22737 30268 ft 396 kts 299°
2026-04-20 22:11 33.84523 -87.28535 30273 ft 396 kts 299°
2026-04-20 22:12 33.87159 -87.34386 30282 ft 396 kts 299°
2026-04-20 22:12 33.89775 -87.40202 30272 ft 396 kts 299°
2026-04-20 22:13 33.92412 -87.46074 30260 ft 399 kts 299°
2026-04-20 22:13 33.95050 -87.51958 30268 ft 397 kts 299°
2026-04-20 22:14 33.97670 -87.57812 30265 ft 399 kts 299°
2026-04-20 22:14 34.00304 -87.63709 30251 ft 399 kts 299°
2026-04-20 22:15 34.02933 -87.69595 30251 ft 401 kts 299°
2026-04-20 22:15 34.05825 -87.75304 30248 ft 400 kts 303°
2026-04-20 22:16 34.08901 -87.80894 30254 ft 401 kts 303°
2026-04-20 22:16 34.11983 -87.86520 30264 ft 401 kts 303°
2026-04-20 22:16 34.13494 -87.89307 30107 ft 397 kts 303°
2026-04-20 22:17 34.14999 -87.92101 29359 ft 399 kts 303°
2026-04-20 22:17 34.16524 -87.94945 28204 ft 409 kts 303°
2026-04-20 22:17 34.18066 -87.97828 27068 ft 417 kts 303°
2026-04-20 22:17 34.19623 -88.00745 25967 ft 423 kts 303°
2026-04-20 22:18 34.21219 -88.03748 25067 ft 423 kts 303°
2026-04-20 22:18 34.22742 -88.06702 24581 ft 414 kts 302°
2026-04-20 22:18 34.24221 -88.09662 24283 ft 405 kts 302°
2026-04-20 22:18 34.25663 -88.12586 24274 ft 409 kts 302°
2026-04-20 22:19 34.27117 -88.15542 24270 ft 416 kts 302°
2026-04-20 22:19 34.28589 -88.18529 24267 ft 414 kts 302°
2026-04-20 22:19 34.30083 -88.21558 24269 ft 414 kts 302°
2026-04-20 22:19 34.31552 -88.24532 24270 ft 415 kts 302°
2026-04-20 22:20 34.33033 -88.27526 24272 ft 415 kts 302°
2026-04-20 22:20 34.34521 -88.30534 24270 ft 415 kts 302°
2026-04-20 22:20 34.36003 -88.33530 24271 ft 415 kts 302°
2026-04-20 22:20 34.37478 -88.36512 24272 ft 416 kts 302°
2026-04-20 22:21 34.38963 -88.39516 24273 ft 416 kts 302°
2026-04-20 22:21 34.40440 -88.42506 24271 ft 415 kts 302°
2026-04-20 22:21 34.41926 -88.45516 24272 ft 417 kts 302°
2026-04-20 22:21 34.43416 -88.48537 24275 ft 417 kts 302°
2026-04-20 22:22 34.44887 -88.51522 24274 ft 416 kts 302°
2026-04-20 22:22 34.46379 -88.54555 24272 ft 415 kts 302°
2026-04-20 22:22 34.47852 -88.57549 24140 ft 412 kts 302°
2026-04-20 22:22 34.49293 -88.60485 23573 ft 407 kts 303°
2026-04-20 22:23 34.50733 -88.63419 23283 ft 403 kts 303°
2026-04-20 22:23 34.52173 -88.66353 23278 ft 412 kts 302°
2026-04-20 22:23 34.53653 -88.69368 23276 ft 413 kts 302°
2026-04-20 22:23 34.55104 -88.72327 23275 ft 412 kts 302°
2026-04-20 22:24 34.56563 -88.75308 23273 ft 412 kts 302°
2026-04-20 22:24 34.58023 -88.78293 23271 ft 412 kts 302°
2026-04-20 22:24 34.59483 -88.81281 23271 ft 412 kts 302°
2026-04-20 22:24 34.60944 -88.84275 23269 ft 412 kts 302°
2026-04-20 22:25 34.62341 -88.87297 23266 ft 411 kts 299°
2026-04-20 22:25 34.63537 -88.90432 23266 ft 414 kts 294°
2026-04-20 22:25 34.64523 -88.93739 23266 ft 415 kts 290°
2026-04-20 22:25 34.65355 -88.97098 23266 ft 416 kts 288°
2026-04-20 22:26 34.66111 -89.00482 23266 ft 417 kts 287°
2026-04-20 22:26 34.66841 -89.03908 23266 ft 417 kts 287°
2026-04-20 22:26 34.67549 -89.07282 23264 ft 417 kts 287°
2026-04-20 22:27 34.69030 -89.14110 23262 ft 417 kts 288°
2026-04-20 22:27 34.69800 -89.17488 23263 ft 419 kts 288°
2026-04-20 22:27 34.70585 -89.20887 23265 ft 417 kts 288°
2026-04-20 22:27 34.71368 -89.24266 23022 ft 410 kts 289°
2026-04-20 22:28 34.72133 -89.27580 22287 ft 409 kts 288°
2026-04-20 22:28 34.72886 -89.30895 21483 ft 409 kts 288°
2026-04-20 22:28 34.73619 -89.34172 20697 ft 408 kts 288°
2026-04-20 22:28 34.74352 -89.37481 19991 ft 405 kts 288°
2026-04-20 22:29 34.75075 -89.40756 19367 ft 401 kts 288°
2026-04-20 22:29 34.75794 -89.44017 18709 ft 397 kts 288°
2026-04-20 22:29 34.76550 -89.47232 17955 ft 395 kts 290°
2026-04-20 22:29 34.77475 -89.50297 17283 ft 390 kts 296°
2026-04-20 22:30 34.78689 -89.53253 16664 ft 384 kts 301°